Regional Weather Roundup
Issued by NWS Goodland, KS

Home | Current Version | Previous Version | Text Only | Print | Product List | Glossary Off
Versions: 1 2 3 4 5 6 7 8 9 10 11 12 13 14 15 16 17 18 19 20 21 22 23 24 25 26 27 28 29 30 31 32 33 34 35 36 37 38 39 40 41 42 43 44 45 46 47 48 49 50

000
ASUS43 KGLD 272059
RWRGLD

GOODLAND FORECAST AREA HOURLY WEATHER ROUNDUP
NATIONAL WEATHER SERVICE GOODLAND KS
300 PM MDT TUE SEP 27 2016

...OFFICIAL OBSERVATIONS...

CITY           SKY/WX    TMP DP  RH WIND       PRES   REMARKS
GOODLAND KS    SUNNY     84  34  16 SW9       30.05F
HILL CITY KS   SUNNY     84  50  30 SW6       29.99F HAZE
IMPERIAL NEB   SUNNY     85  35  16 W8G20     30.02F
MCCOOK NEB     SUNNY     84  43  23 W14G20    29.99F
AKRON CO       SUNNY     81  30  15 NW8       30.11F
BURLINGTON CO  SUNNY     83  32  16 VRB5      30.09F
LIMON CO       SUNNY     83  25  12 NW6       30.14F
$$

...UNOFFICIAL OBSERVATIONS...

CITY           SKY/WX    TMP DP  RH WIND       PRES   REMARKS
COLBY KS       SUNNY     88  45  22 W8        30.03F
LENORA KS        N/A     82  32  16 MISG        N/A
NORTON KS      SUNNY     86  34  15 W10G16    29.98F
SHARON SPRINGS   N/A     86  40  19 CALM        N/A
KIT CARSON CO    N/A     83  39  20 MISG        N/A
$$



USA.gov is the U.S. government's official web portal to all federal, state and local government web resources and services.